Torna al catalogo

STARLINK-34696

AttivoComunicazioniVLEO
NORAD 64808·PAYLOAD·🇺🇸 United States

Lanciato Jul 16, 2025 da Vandenberg Space Force Base

Loading…

Prossimi Passaggi (prossime 24 ore)

TLE

AggiornatoSource: CelesTrak SupGP

Epoca: Sep 15, 2026, 02:39 UTC

1 64808C 25150U   26258.11090278  .00029674  00000+0  24868-2 0  2585
2 64808  70.0028  16.9155 0003796 265.3291 278.8506 14.98313139    14

Traccia STARLINK-34696 in tempo reale con AllMySat

Download on the App Store